CZ-2F R/B

基本信息
目录编号:
59592
目录名称:
CZ-2F R/B
国际标识:
2024-078B
轨道中心:
EARTH
物体状态:
已陨落(2024-05-06)
发射日期:
2024-04-25 UTC
国别:
中国 (CN)
轨道信息
数据来源: 国际轨道数据
星历时间: 2024-05-06T23:23:04+0800
半长轴: 6531.048km
偏心率: 0.0024816
轨道倾角: 41.458°
近地点辐角: 223.591°
升交点赤经: 333.638°
平近点角: 301.603°
近地点: 136.705km
远地点: 169.121km
周期: 87.546分钟
每日圈数: 16.448584
详细信息
发射场:
JSC
轨道高度:
LEO
数据来源:
AOE Integration Group
参考系:
TEME
时间系统:
UTC
历元类型:
SGP4
2D轨道图
3D轨道图
轨道高度分析图
轨道倾角分析图
轨道综合分析图
查看轨道综合分析图